Location: Plateau_FTFHS
(35.6000°N, 81.3500°W)
Time: 15:54:10
(UTC-04:00)

Daily predictions for brighter satellites

Satellite Brightness Start Highest point End
(mag) Time Altitude Azimuth Time Altitude Azimuth Time Altitude Azimuth
Cosmos 1655 Rocket 4.1 20:26:09 10° S 20:32:15 58° E 20:38:27 10° NNE
Cosmos 44 3.2 20:30:24 10° NNW 20:34:50 64° ENE 20:39:26 10° SE
CZ-4C R/B 4.0 20:27:53 10° NW 20:35:01 48° WSW 20:42:39 10° S
Okean 2 Rocket 3.2 20:31:20 10° S 20:35:50 90° E 20:40:22 10° N
CZ-2D R/B 3.7 20:32:46 10° SE 20:36:25 42° ENE 20:40:04 10° N
ATLAS 2AS CENTAUR R/B 3.4 20:29:46 10° S 20:36:41 41° ESE 20:44:03 10° NE
Intercosmos 25 Rocket 4.3 20:37:16 10° NNW 20:40:16 42° W 20:43:32 10° SSW
BREEZE-M DEB (TANK) 2.1 20:40:35 10° SW 20:42:59 85° NW 20:48:09 10° NE
H-2A R/B 3.2 20:43:10 10° S 20:46:56 65° W 20:50:41 10° NNW
BREEZE-M DEB (TANK) 3.5 20:43:52 10° NW 20:47:07 60° NE 20:59:04 12° ESE
NOSS 2-3 (E) 3.8 20:43:03 10° SSW 20:47:33 63° ESE 20:52:37 10° NE
Delta 2 Rocket 3.6 20:43:53 10° SW 20:47:37 47° SSE 20:51:51 10° E
ALOS 4.1 20:47:59 10° SSW 20:52:10 33° W 20:56:22 10° NNW
Cosmos 2227 4.2 20:47:39 10° NNW 20:53:20 85° ENE 20:59:00 10° SSE
Resurs 1-3 3.7 20:50:30 10° SSE 20:54:48 59° ENE 20:59:07 10° N
USA 186 2.2 20:51:44 10° SSE 20:54:58 47° ENE 20:58:14 10° N
Lacrosse 5 1.9 20:50:53 10° SSW 20:55:53 61° SE 21:00:54 10° NE
Cosmos 1452 Rocket 4.3 20:50:57 10° SSW 20:56:08 58° WNW 21:01:21 10° N
Helios 1B rocket 3.9 20:53:26 10° NE 20:56:09 17° E 20:57:36 15° ESE
Cosmos 1420 Rocket 4.1 20:52:12 10° SSW 20:57:22 83° WNW 21:02:35 10° NNE
Atlas Centaur 2 3.2 20:54:42 10° W 21:02:58 58° S 21:08:53 16° ESE
Meteor 2-11 Rocket 4.4 20:58:13 10° N 21:04:19 90° WSW 21:10:23 10° S
Cosmos 1602 4.2 21:05:53 10° SSW 21:09:40 61° W 21:13:28 10° N
SeaSat 1 2.4 21:05:02 10° NNE 21:09:56 64° ESE 21:14:49 10° SSW
Okean 1 Rocket 3.4 21:11:42 10° SSE 21:15:45 41° E 21:19:52 10° NNE
Cosmos 1300 Rocket 3.4 21:12:23 10° S 21:16:39 67° E 21:20:56 10° NNE
GENESIS II 4.1 21:13:17 10° NNW 21:17:13 88° ENE 21:19:40 22° SSE
Cosmos 2263 Rocket 2.5 21:14:57 10° N 21:20:31 51° ENE 21:23:58 22° SE
Cosmos 2322 Rocket 2.7 21:15:36 10° SSW 21:21:14 64° WNW 21:26:54 10° NNE
NOSS 2-3 (C) 4.3 21:16:41 10° SW 21:21:15 63° NW 21:26:28 10° NNE
Cosmos 1025 Rocket 4.1 21:19:06 10° NNE 21:22:38 25° ENE 21:23:14 24° E
Meteor 1-11 Rocket 3.9 21:16:52 10° S 21:22:42 81° W 21:28:29 10° N
YAOGAN 6 3.2 21:22:13 30° ESE 21:23:08 36° ENE 21:26:23 10° N
SJ-11-01 4.4 21:21:00 19° SSE 21:24:09 57° ENE 21:28:44 10° N
GPS 2-05 Rocket1 2.7 21:22:08 10° W 21:25:32 73° S 21:26:33 41° ESE
Tiangong 1 2.0 21:23:34 10° NW 21:26:07 31° NNE 21:26:47 27° NE
Cosmos 1140 Rocket 4.1 21:21:38 10° NNW 21:26:46 57° WSW 21:31:53 10° S
S3M 4.1 21:21:34 10° N 21:27:51 79° W 21:34:12 10° S
Cosmos 614 Rocket 4.3 21:22:48 10° NNW 21:27:52 65° WSW 21:32:56 10° S
Cosmos 1553 Rocket 4.2 21:22:54 10° N 21:29:00 70° W 21:35:01 10° S
Spot 2 Rocket 3.9 21:24:22 10° S 21:29:25 64° WSW 21:34:29 10° NNW
Cosmos 2266 Rocket 3.8 21:23:39 10° S 21:29:40 75° E 21:35:41 10° N
Resurs 01 Rocket 2.6 21:26:31 10° S 21:30:47 47° W 21:35:06 10° NNW
Okean 1-7 Rocket 4.4 21:28:16 10° NNE 21:32:17 31° ENE 21:32:59 30° E
SL-16 R/B 3.2 21:28:00 10° SW 21:33:28 49° WNW 21:38:58 10° N
CZ-4B DEB 4.4 21:32:26 34° SSE 21:33:51 76° ENE 21:37:22 10° N
Cosmos 2315 Rocket 4.2 21:34:34 10° N 21:40:36 49° E 21:43:24 30° SE
Helios 1A 3.0 21:41:23 41° SE 21:42:39 60° ENE 21:46:51 10° N
Meteor 1-23 Rocket 4.1 21:38:23 10° N 21:43:57 73° E 21:47:03 27° SSE
Cosmos 2322 3.6 21:39:11 10° S 21:44:44 63° ESE 21:50:20 10° NNE
ERS-1 Rocket 3.5 21:46:40 36° E 21:47:36 39° ENE 21:52:16 10° N
DELTA 2 R/B (1) 4.4 21:42:46 10° W 21:47:59 40° SSW 21:50:09 28° SSE
ATLAS 3B R/B 3.2 21:45:26 10° NNW 21:51:44 41° NE 21:53:55 32° E
Cosmos 2360 Rocket 2.1 21:48:13 10° SSW 21:53:51 87° WNW 21:59:30 10° NNE
OAO 1 Rocket 4.3 21:49:20 10° W 21:54:41 83° S 21:56:29 43° E
Meteor 1-29 3.5 21:51:29 10° NNE 21:54:00 45° NNE 21:54:00 45° NNE
COSMOS 2428 3.1 21:55:48 40° ESE 21:55:48 40° ESE 22:01:00 10° NE
Cosmos 1939 Rocket 3.5 21:53:53 25° SSW 21:55:55 51° W 21:59:45 10° NNW
USA 267 4.4 21:51:52 15° S 21:56:43 36° SW 22:02:40 10° WNW
Cosmos 1536 4.4 21:53:34 10° SSW 21:57:19 36° W 22:01:06 10° NNW
Envisat 4.1 21:53:59 10° SSW 21:58:45 41° W 22:03:33 10° NNW
Lacrosse 5 rocket 3.8 21:59:37 10° W 22:01:25 13° WSW 22:03:12 10° SSW
Cosmos 1932 4.4 21:55:43 10° NNW 22:02:13 80° ENE 22:04:25 44° SE
H-2A R/B 3.1 22:08:23 28° ENE 22:08:23 28° ENE 22:12:03 10° NNE
Cosmos 2333 Rocket 4.4 22:13:05 11° NE 22:13:05 11° NE 22:13:27 10° NE
NOAA 11 4.1 22:12:03 54° SSE 22:13:22 82° ENE 22:18:53 10° N
Cosmos 1238 Rocket 4.1 22:08:27 10° N 22:14:59 54° E 22:15:42 51° ESE
Cosmos 2333 4.3 22:16:47 53° E 22:16:47 53° E 22:21:36 10° NNE
Meteosat 1 Rocket2 4.4 22:12:31 10° WSW 22:17:48 46° S 22:18:09 46° SSE
Cosmos 1302 Rocket 3.8 22:19:34 70° SSE 22:20:05 79° ESE 22:25:23 10° NNE
MetOp-A 3.9 22:24:43 75° SE 22:25:09 84° ENE 22:30:32 10° NNW
Cosmos 1486 Rocket 4.5 22:21:43 10° N 22:26:11 47° NE 22:26:11 47° NE
ATLAS 2AS CENTAUR R/B 4.1 22:20:24 10° WSW 22:27:38 44° NW 22:35:18 10° NNE
Aureole 3 Rocket 4.0 22:21:36 10° N 22:29:35 68° E 22:30:15 63° ESE
Delta 2 Rocket 4.1 22:25:47 10° W 22:28:55 50° W 22:28:55 50° W
Helios 1B rocket 4.2 22:27:51 10° N 22:31:28 31° WNW 22:33:57 17° WSW
SPOT 5 3.4 22:33:36 48° NNE 22:33:36 48° NNE 22:37:13 10° N
BREEZE M DEB (TANK) 3.4 22:25:18 10° WSW 22:33:03 50° NW 22:33:38 45° N
Cosmos 1241 Rocket 4.5 22:26:34 10° SSW 22:33:09 88° WNW 22:39:42 10° NNE
Intelsat 5-1 Rocket 4.3 22:17:23 10° WSW 22:34:55 42° SSW 22:36:16 40° S
Lacrosse 5 4.2 22:35:12 10° W 22:39:11 23° NW 22:43:11 10° NNE
Cosmos 1066 Rocket 4.2 22:36:25 10° N 22:41:15 68° NNE 22:41:15 68° NNE
Centaur D AC-29 4.1 22:39:08 10° SW 22:43:39 17° SSW 22:43:39 17° SSW
ARGOS 3.3 22:49:54 69° WNW 22:49:54 69° WNW 22:54:57 10° NNW
Atlas Centaur 2 3.6 22:45:06 10° W 22:51:30 34° SSW 22:51:30 34° SSW
Nadezhda 1 Rocket 4.3 22:47:47 10° N 22:53:09 56° NE 22:53:09 56° NE
Cosmos 2263 Rocket 4.3 23:00:08 10° WNW 23:03:56 19° W 23:05:42 16° WSW
Cosmos 2278 Rocket 3.7 23:03:17 10° N 23:06:39 27° NNE 23:06:39 27° NNE
SPOT 1/Viking Rocket 4.4 23:10:41 47° NNW 23:10:41 47° NNW 23:14:26 10° NNW
Cosmos 1844 Rocket 3.3 23:05:51 10° NNW 23:10:10 53° NNW 23:10:10 53° NNW
Terra 3.7 23:16:55 24° N 23:16:55 24° N 23:18:55 10° N
Cosmos 2219 Rocket 3.3 23:24:26 40° N 23:24:26 40° N 23:28:10 10° NNE
NOSS 3-2 (A) 4.0 23:18:19 10° NNW 23:25:38 79° NNE 23:25:38 79° NNE
USA 238 DEB 4.2 23:21:04 10° NW 23:27:24 52° W 23:27:24 52° W
USA 238 4.2 23:21:10 10° NW 23:27:30 53° W 23:27:30 53° W
ATLAS 3B R/B 3.9 23:36:27 10° NW 23:41:11 31° W 23:41:11 31° W
H-2A R/B 4.1 23:49:02 22° WNW 23:49:02 22° WNW 23:51:23 10° NW
Cosmos 2333 Rocket 3.8 23:55:01 30° NNW 23:55:01 30° NNW 23:58:18 10° N
